FENGYUN 1C DEB

Satellite information

Favourite Embed

Satellite Type and Status

DEBRISIN ORBIT

Key statistics

Satellite FENGYUN 1C DEB at a glance.

Uptime

9555

Days in orbit

Revolutions

≈ 14.3

Per day

Orbit

SSO

Sun Synchronous Orbit

Inclination

98.7

Latest

Satellite identification and parameters

Extended collection of information and parameters for FENGYUN 1C DEB.

Object identification

Identified? True

Debris? True

Object name: FENGYUN 1C DEB

International designator: 1999-025AMP

Object number (NORAD): 30608

Object ID (CCSDS): 30608

Country: PEOPLES REPUBLIC OF CHINA (PRC)

Current information (Y/N): Y

RCS size: MEDIUM

Orbital parameters

Period: 100.874 minutes

Inclination: 98.7275 deg

SMA: 7178.137 km

Apoapsis: 809.22 km

Periapsis: 790.784 km

RAAN: 250.1213 deg

Eccentricy: 0.0012842

Argument of periapsis: 288.4824 deg

Mean anomaly: 129.8786 deg

Mean motion: 14.27529675 rev/day

Mean motion (dot): 0.00001243 rev/day2

B* drag term: 0.00052327 1/REarth

Two-line elements (TLE)

Creation date: July 6, 2025, 6:05 p.m.

Reference frame: TEME

Reference center: EARTH

Epoch: July 6, 2025, 4:12 a.m. UTC

TLE line 0: 0 FENGYUN 1C DEB

TLE line 1: 1 30608U 99025AMP 25187.17559837 .00001243 00000-0 52327-3 0 9992

TLE line 2: 2 30608 98.7275 250.1213 0012842 288.4824 129.8786 14.27529675951626

Live tracking on map

Real-time ground track for satellite FENGYUN 1C DEB.

In-orbit conjunctions

A list of the most updated potential collisions computed for object FENGYUN 1C DEB.

Target Orbit TCA Probability of collision Miss distance Type
FENGYUN 1C DEB SSO 2025-04-27 10:03:51 0.0002498561 155.0 (m) DEBRIS
SL-18 DEB LEO 2024-11-28 06:17:01 0.0003146363 81.0 (m) DEBRIS
CZ-6A DEB LEO 2024-11-17 21:41:40 0.0004649282 166.0 (m) DEBRIS
BLOCK DM-SL R/B GTO 2024-10-29 04:46:16 0.0001306133 248.0 (m) ROCKET BODY

Associated space launch

Chinese polar orbiting meteorological satellite

FENGYUN 1C DEB was lifted into orbit during the mission ‘Long March 4B | Feng Yun 1C’, on board a Long March 4B space rocket.

The launch took place on May 10, 1999, 1:33 a.m. from Launch Complex 7.

For more information about the launch, click the button.

Launch to space Long March 4B | Feng Yun 1C
Long March 4B | Feng Yun 1C

Agency: N/A

Status: Launch Successful

Launch date: May 10, 1999, 1:33 a.m. UTC

Rocket: Long March 4B

Launch pad: Launch Complex 7

Location: Taiyuan Satellite Launch Center, People's Republic of China

...

Latest news about this satellite

There are no fresh news available about this satellite. Check back as we update our databases every day.


Newsletter sign-up

Weekly statistics, charts and insights to help you stay on top of the space industry.